KA5FVT Weather Reports


Display with metric or nautical units.
time (UTC)temp
F
wind
direction
speed
MPH
gust
MPH
rain 1hr
in
rain 24hr
in
rain mn
in
humidity
%
barometer
mb
20260503181929 83 198 1.0 1.0 0.00 0.00 0.00 39 1021.3
20260503181427 82 198 0.0 2.0 0.00 0.00 0.00 37 1021.4
20260503180926 82 198 0.0 2.0 0.00 0.00 0.00 39 1021.5
20260503180427 82 102 1.0 2.0 0.00 0.00 0.00 38 1021.6
20260503175926 82 101 1.0 2.0 0.00 0.00 0.00 36 1021.6
20260503175429 82 84 1.0 2.0 0.00 0.00 0.00 39 1021.8
20260503174929 82 83 1.0 1.0 0.00 0.00 0.00 37 1021.8
20260503174426 81 83 0.0 4.0 0.00 0.00 0.00 37 1022.0
20260503173926 81 137 2.0 3.0 0.00 0.00 0.00 39 1022.0
20260503173429 81 184 1.0 3.0 0.00 0.00 0.00 41 1022.1
20260503172930 81 228 0.0 2.0 0.00 0.00 0.00 38 1022.1
20260503172426 80 228 1.0 2.0 0.00 0.00 0.00 39 1022.2
20260503171926 80 228 0.0 2.0 0.00 0.00 0.00 36 1022.3
20260503171426 80 221 0.0 1.0 0.00 0.00 0.00 39 1022.5
20260503170926 80 221 1.0 2.0 0.00 0.00 0.00 39 1022.3
20260503170427 80 223 0.0 1.0 0.00 0.00 0.00 40 1022.4
20260503150926 71 279 0.0 1.0 0.00 0.00 0.00 56 1022.4
20260503150426 71 279 0.0 1.0 0.00 0.00 0.00 58 1022.3
20260503130926 59 279 0.0 0.0 0.00 0.00 0.00 95 1021.8
20260503130426 58 279 0.0 0.0 0.00 0.00 0.00 95 1021.8
20260503110429 57 279 0.0 0.0 0.00 0.00 0.00 92 1020.7
20260503090426 58 279 0.0 0.0 0.00 0.00 0.00 90 1020.4
20260503081427 59 279 0.0 0.0 0.00 0.00 0.00 88 1020.7
20260503080926 59 279 0.0 0.0 0.00 0.00 0.00 88 1020.7
20260503080429 59 279 0.0 0.0 0.00 0.00 0.00 88 1020.8
20260503072926 60 279 0.0 0.0 0.00 0.00 0.00 88 1020.6
20260503072426 60 279 0.0 0.0 0.00 0.00 0.00 87 1020.5
20260503071926 60 279 0.0 0.0 0.00 0.00 0.00 87 1020.6
20260503071426 60 279 0.0 0.0 0.00 0.00 0.00 87 1020.6
20260503070926 60 279 0.0 0.0 0.00 0.00 0.00 87 1020.8
20260503070427 60 279 0.0 0.0 0.00 0.00 0.00 86 1020.7
20260503054926 62 279 0.0 0.0 0.00 0.00 0.00 83 1020.8
20260503054426 62 279 0.0 0.0 0.00 0.00 0.00 83 1020.8
20260503053926 62 279 0.0 0.0 0.00 0.00 0.00 82 1020.8
20260503053426 62 279 0.0 0.0 0.00 0.00 0.00 82 1020.6
20260503052926 62 279 0.0 0.0 0.00 0.00 0.00 82 1020.5
20260503052426 62 279 0.0 0.0 0.00 0.00 0.00 81 1020.6
20260503051927 62 279 0.0 0.0 0.00 0.00 0.00 81 1020.6
20260503051426 62 279 0.0 0.0 0.00 0.00 0.00 81 1020.7
20260503050926 62 279 0.0 0.0 0.00 0.00 0.00 81 1020.7
20260503050426 63 279 0.0 0.0 0.00 0.00 0.00 80 1020.6
20260503045926 63 279 0.0 0.0 0.00 0.00 0.00 80 1020.6
20260503045426 63 279 0.0 0.0 0.00 0.00 0.00 79 1020.6
20260503044929 63 279 0.0 0.0 0.00 0.00 0.00 79 1020.5
20260503044430 63 279 0.0 0.0 0.00 0.00 0.00 79 1020.6
20260503043929 63 279 0.0 0.0 0.00 0.00 0.00 78 1020.5
20260503043426 63 279 0.0 0.0 0.00 0.00 0.00 78 1020.5
20260503042926 63 279 0.0 0.0 0.00 0.00 0.00 78 1020.4
20260503042429 63 279 0.0 0.0 0.00 0.00 0.00 76 1020.4
20260503041926 64 279 0.0 0.0 0.00 0.00 0.00 76 1020.4
20260503041427 64 279 0.0 0.0 0.00 0.00 0.00 77 1020.6
20260503040927 64 279 0.0 0.0 0.00 0.00 0.00 77 1020.6
20260503040426 64 279 0.0 0.0 0.00 0.00 0.00 75 1020.6
20260503035926 64 279 0.0 0.0 0.00 0.00 0.00 75 1020.5
20260503035426 64 279 0.0 0.0 0.00 0.00 0.00 76 1020.2
20260503034929 64 279 0.0 0.0 0.00 0.00 0.00 75 1020.2
20260503034426 65 279 0.0 0.0 0.00 0.00 0.00 75 1020.1
20260503033926 65 279 0.0 0.0 0.00 0.00 0.00 73 1020.0
20260503033427 65 279 0.0 0.0 0.00 0.00 0.00 74 1019.9
20260503032926 65 279 0.0 0.0 0.00 0.00 0.00 73 1019.9
20260503032426 65 279 0.0 0.0 0.00 0.00 0.00 72 1019.7
20260503031926 66 279 0.0 0.0 0.00 0.00 0.00 73 1019.8
20260503031426 66 279 0.0 0.0 0.00 0.00 0.00 72 1019.8
20260503030926 66 279 0.0 0.0 0.00 0.00 0.00 71 1019.7
20260503030426 66 279 0.0 0.0 0.00 0.00 0.00 70 1019.8
20260503025927 66 279 0.0 0.0 0.00 0.00 0.00 70 1019.8
20260503025426 67 279 0.0 0.0 0.00 0.00 0.00 70 1019.8
20260503024926 67 279 0.0 0.0 0.00 0.00 0.00 69 1019.8
20260503024426 67 279 0.0 0.0 0.00 0.00 0.00 69 1019.7
20260503023929 67 279 0.0 0.0 0.00 0.00 0.00 68 1019.7
20260503023426 67 279 0.0 0.0 0.00 0.00 0.00 67 1019.6
20260503022926 68 279 0.0 0.0 0.00 0.00 0.00 65 1019.6
20260503022427 68 279 0.0 0.0 0.00 0.01 0.00 65 1019.5
20260503021929 68 279 0.0 0.0 0.00 0.01 0.00 65 1019.5
20260503021426 68 279 0.0 0.0 0.00 0.02 0.00 65 1019.5
20260503020929 69 279 0.0 0.0 0.00 0.03 0.00 63 1019.5
20260503020426 69 279 0.0 0.0 0.00 0.04 0.00 61 1019.4
20260503015926 69 279 0.0 0.0 0.00 0.04 0.00 60 1019.3
20260503015426 69 279 0.0 0.0 0.00 0.05 0.00 61 1019.2
20260503014927 70 279 0.0 0.0 0.00 0.05 0.00 58 1019.1
20260503014426 70 279 0.0 0.0 0.00 0.06 0.00 59 1019.0
20260503013926 70 279 0.0 0.0 0.00 0.06 0.00 58 1018.8
20260503013426 71 279 0.0 0.0 0.00 0.07 0.00 57 1018.8
20260503012929 71 279 0.0 0.0 0.00 0.08 0.00 57 1018.8
20260503012426 71 279 0.0 0.0 0.00 0.10 0.00 56 1018.7
20260503011926 71 279 0.0 0.0 0.00 0.11 0.00 54 1018.7
20260503011427 72 279 0.0 0.0 0.00 0.12 0.00 53 1018.7
20260503010926 72 279 0.0 0.0 0.00 0.13 0.00 55 1018.7
20260503010429 72 279 0.0 0.0 0.00 0.13 0.00 51 1018.7
20260503005926 72 279 0.0 0.0 0.00 0.13 0.00 52 1018.7
20260503005426 73 279 0.0 0.0 0.00 0.15 0.00 50 1018.5
20260503004926 73 279 0.0 0.0 0.00 0.15 0.00 49 1018.5
20260503004426 73 279 0.0 1.0 0.00 0.15 0.00 53 1018.4
20260503003930 73 279 1.0 2.0 0.00 0.15 0.00 49 1018.3
20260503003426 74 282 0.0 1.0 0.00 0.16 0.00 50 1018.3
20260503002926 74 282 0.0 0.0 0.00 0.16 0.00 48 1018.1
20260503002426 74 282 0.0 1.0 0.00 0.16 0.00 50 1018.1
20260503001926 74 282 0.0 0.0 0.00 0.17 0.00 48 1018.0
20260503001426 75 282 0.0 1.0 0.00 0.17 0.00 49 1018.1
20260503000926 75 282 0.0 1.0 0.00 0.18 0.00 47 1018.0
20260503000427 75 282 0.0 1.0 0.00 0.19 0.00 47 1017.9
20260502235926 76 282 0.0 2.0 0.00 0.21 0.00 46 1017.8
20260502235426 76 282 0.0 1.0 0.00 0.23 0.00 45 1017.7
20260502234926 76 282 0.0 1.0 0.00 0.23 0.00 46 1017.8
20260502234426 77 282 0.0 2.0 0.00 0.24 0.00 45 1017.8
20260502233927 77 174 1.0 4.0 0.00 0.24 0.00 43 1017.9
20260502233426 78 312 0.0 3.0 0.00 0.24 0.00 41 1017.9
20260502232929 79 355 1.0 1.0 0.00 0.24 0.00 42 1017.9
20260502232426 79 355 0.0 1.0 0.00 0.25 0.00 42 1018.0
20260502231926 79 355 1.0 2.0 0.00 0.25 0.00 42 1018.0
20260502231426 79 350 0.0 2.0 0.00 0.27 0.00 42 1017.9
20260502230927 79 348 0.0 1.0 0.00 0.30 0.00 42 1017.9
20260502230426 79 355 1.0 2.0 0.00 0.33 0.00 42 1017.9
20260502225936 79 302 1.0 3.0 0.00 0.34 0.00 40 1017.9
20260502225426 78 311 1.0 2.0 0.00 0.36 0.00 42 1017.9
20260502224926 78 311 1.0 2.0 0.00 0.36 0.00 42 1017.8
20260502224427 78 310 0.0 4.0 0.00 0.36 0.00 40 1017.8
20260502223926 79 49 1.0 3.0 0.00 0.36 0.00 42 1017.8
20260502223426 78 330 0.0 2.0 0.00 0.36 0.00 45 1017.9
20260502222929 78 42 2.0 3.0 0.00 0.36 0.00 43 1018.0
20260502222426 78 276 1.0 2.0 0.00 0.36 0.00 43 1018.0
20260502221926 77 64 2.0 3.0 0.00 0.36 0.00 45 1018.0
20260502221426 77 295 0.0 1.0 0.00 0.36 0.00 46 1018.0
20260502220926 76 295 1.0 3.0 0.00 0.36 0.00 43 1018.1
20260502220429 76 323 0.0 2.0 0.00 0.36 0.00 46 1018.0
20260502215927 76 323 1.0 3.0 0.00 0.36 0.00 44 1018.0
20260502215426 76 323 1.0 2.0 0.00 0.37 0.00 44 1018.0
20260502214926 76 321 0.0 1.0 0.00 0.37 0.00 47 1018.0
20260502214426 75 321 1.0 3.0 0.00 0.37 0.00 45 1018.0
20260502213926 75 270 1.0 2.0 0.00 0.37 0.00 46 1018.1
20260502213427 75 17 1.0 2.0 0.00 0.38 0.00 46 1018.1
20260502212926 75 321 1.0 1.0 0.00 0.39 0.00 47 1018.1
20260502212426 75 321 0.0 2.0 0.00 0.39 0.00 46 1018.2
20260502211926 76 319 2.0 4.0 0.00 0.39 0.00 45 1018.2
20260502211426 76 340 3.0 4.0 0.00 0.39 0.00 44 1018.3
20260502210929 76 0 1.0 2.0 0.00 0.39 0.00 47 1018.2
20260502210427 76 196 1.0 1.0 0.00 0.40 0.00 46 1018.2
20260502205929 76 196 1.0 2.0 0.00 0.40 0.00 47 1018.5
20260502205426 76 355 0.0 4.0 0.00 0.40 0.00 46 1018.5
20260502204926 76 334 2.0 3.0 0.00 0.41 0.00 44 1018.4
20260502204426 76 71 0.0 3.0 0.00 0.42 0.00 47 1018.4
20260502203930 76 355 1.0 2.0 0.00 0.43 0.00 47 1018.5
20260502203428 76 355 1.0 3.0 0.00 0.44 0.00 45 1018.5
20260502202927 77 116 0.0 2.0 0.00 0.45 0.00 45 1018.6
20260502202429 77 28 1.0 2.0 0.00 0.46 0.00 46 1018.7
20260502201926 77 312 1.0 4.0 0.00 0.47 0.00 43 1018.7
20260502201426 77 264 0.0 2.0 0.00 0.47 0.00 46 1018.7
20260502200926 77 264 1.0 2.0 0.00 0.48 0.00 45 1018.8
20260502200427 77 212 1.0 2.0 0.00 0.50 0.00 45 1018.8
20260502195926 77 307 1.0 2.0 0.00 0.51 0.00 45 1018.8
20260502195426 76 307 1.0 3.0 0.00 0.51 0.00 51 1018.8
20260502194926 76 294 2.0 2.0 0.00 0.51 0.00 47 1019.2
20260502194426 76 331 1.0 3.0 0.00 0.52 0.00 45 1019.3
20260502193926 76 318 1.0 3.0 0.00 0.52 0.00 45 1019.3
20260502193426 76 92 1.0 3.0 0.00 0.52 0.00 47 1019.3
20260502192926 76 21 1.0 3.0 0.00 0.52 0.00 47 1019.4
20260502192427 75 325 0.0 2.0 0.00 0.53 0.00 49 1019.4
20260502191926 75 325 1.0 6.0 0.00 0.53 0.00 46 1019.4
20260502191426 75 348 0.0 3.0 0.00 0.53 0.00 45 1019.5
20260502190927 75 141 0.0 3.0 0.00 0.53 0.00 50 1019.5
20260502190426 75 271 1.0 3.0 0.00 0.54 0.00 45 1019.5
20260502185926 75 131 2.0 2.0 0.00 0.54 0.00 49 1019.5
20260502185429 74 150 1.0 3.0 0.00 0.55 0.00 49 1019.6
20260502184926 74 336 2.0 5.0 0.00 0.56 0.00 46 1019.8
20260502184426 74 344 1.0 4.0 0.00 0.58 0.00 47 1019.8
20260502183926 74 171 0.0 2.0 0.00 0.62 0.00 49 1019.8
20260502183426 74 279 1.0 3.0 0.00 0.62 0.00 47 1020.0
20260502182926 74 41 1.0 3.0 0.00 0.63 0.00 51 1020.0
20260502182426 74 15 1.0 3.0 0.00 0.63 0.00 50 1020.0